TimeCDT,TemperatureF,Dew PointF,Humidity,Sea Level PressureIn,VisibilityMPH,Wind Direction,Wind SpeedMPH,Gust SpeedMPH,PrecipitationIn,Events,Conditions,WindDirDegrees,DateUTC
12:53 AM,62.1,50.0,65,30.14,10.0,SSE,5.8,-,N/A,,Scattered Clouds,150,2013-08-15 05:53:00
1:53 AM,62.1,50.0,65,30.12,10.0,SE,4.6,-,N/A,,Overcast,130,2013-08-15 06:53:00
2:53 AM,62.1,50.0,65,30.12,10.0,SSE,3.5,-,N/A,,Mostly Cloudy,160,2013-08-15 07:53:00
3:53 AM,62.1,51.1,67,30.12,10.0,SSE,4.6,-,N/A,,Overcast,150,2013-08-15 08:53:00
4:53 AM,61.0,51.1,70,30.12,10.0,SSE,4.6,-,N/A,,Overcast,150,2013-08-15 09:53:00
5:53 AM,61.0,51.1,70,30.13,10.0,Calm,Calm,-,N/A,,Overcast,0,2013-08-15 10:53:00
6:53 AM,61.0,52.0,72,30.14,10.0,Calm,Calm,-,0.00,Rain,Light Rain,0,2013-08-15 11:53:00
7:53 AM,59.0,55.0,87,30.16,10.0,Calm,Calm,-,0.07,Rain,Light Rain,0,2013-08-15 12:53:00
8:53 AM,59.0,54.0,83,30.16,5.0,South,4.6,-,0.08,Rain,Light Rain,180,2013-08-15 13:53:00
9:53 AM,60.1,55.0,83,30.15,10.0,Calm,Calm,-,0.06,Rain,Light Rain,0,2013-08-15 14:53:00
10:53 AM,61.0,57.0,87,30.16,9.0,Calm,Calm,-,0.01,Rain,Light Rain,0,2013-08-15 15:53:00
11:53 AM,61.0,57.0,87,30.15,10.0,Calm,Calm,-,0.04,Rain,Light Rain,0,2013-08-15 16:53:00
12:53 PM,61.0,57.0,87,30.16,7.0,Calm,Calm,-,0.01,Rain,Light Rain,0,2013-08-15 17:53:00
1:53 PM,62.1,57.9,86,30.15,10.0,Calm,Calm,-,0.01,,Overcast,0,2013-08-15 18:53:00
2:53 PM,62.1,55.9,80,30.12,9.0,ESE,5.8,-,0.00,Rain,Light Rain,110,2013-08-15 19:53:00
3:53 PM,64.0,57.0,78,30.10,10.0,East,4.6,-,0.00,,Overcast,90,2013-08-15 20:53:00
4:53 PM,64.9,57.0,75,30.10,10.0,East,3.5,-,N/A,,Overcast,80,2013-08-15 21:53:00
5:53 PM,64.9,57.9,78,30.10,10.0,East,4.6,-,N/A,,Overcast,80,2013-08-15 22:53:00
6:53 PM,64.9,57.0,75,30.09,10.0,East,5.8,-,N/A,,Overcast,90,2013-08-15 23:53:00
7:53 PM,64.0,57.0,78,30.12,10.0,East,3.5,-,N/A,,Overcast,90,2013-08-16 00:53:00
8:53 PM,63.0,55.9,78,30.11,10.0,ENE,3.5,-,N/A,,Mostly Cloudy,70,2013-08-16 01:53:00
9:53 PM,63.0,55.0,75,30.14,10.0,ESE,3.5,-,N/A,,Overcast,110,2013-08-16 02:53:00
10:53 PM,63.0,55.0,75,30.13,10.0,East,3.5,-,N/A,,Overcast,80,2013-08-16 03:53:00